Find Starlink 30959

NORAD ID: 58442 Int'l Des: 2023-183 Owner: SPXS Country: US Constellation: starlink operational
LEOCIRCULAR

当前视图

正在加载3D地球...

About Starlink 30959

Starlink 30959 (NORAD 58442) is a starlink constellation satellite (v2 mini) launched Nov 28, 2023 by SPXS of US. It operates in LEO, CIRCULAR orbit with a mass of 730.00 kg.

关于 Starlink 30959

正在加载描述...

即将过境

Passes for default location (London). Set your location on the main map for personalized predictions.

高度历史

Loading altitude history...

两行轨道根数

1 58442U 23183F 26170.07770041 .00000482 00000-0 27029-4 0 9990
2 58442 43.0006 188.7498 0001465 277.8387 82.2298 15.27577380142240
Epoch: Jun 19, 2026 • Age: 30 hours

当前状态

高度 490.8 km
速度 7.62 km/s
星下点 -31.56°S, 120.38°E
发射日期 Nov 28, 2023
运行时间 2.5 years
类型 internet

技术详情

分类 Payload
质量 730.00 kg
干质量 700.00 kg
总质量 730.00 kg
长度 0.30 m
直径 4.10 m
跨度 29.00 m
形状 Box + pan
制造商 SPXS
平台类型 Starlink V2M
阶段状态 In Orbit
所有者/国家 SPXS/US

Most Searched